Carbondale, IL

5:52 AM CDT on May 29, 2017 (GMT -0500)
Southern Illinois

Weather History for KMDH - December, 2012

Change the Weather History Date:

Wednesday, December 19, 2012

  Actual Average Record
Temperature  
Mean Temperature 47 °F -  
Max Temperature 60 °F 45 °F 66 °F (1976)
Min Temperature 34 °F 24 °F 0 °F (1963)
Degree Days  
Heating Degree Days 18    
Moisture  
Dew Point 38 °F    
Average Humidity 73    
Maximum Humidity 93    
Minimum Humidity 53    
Precipitation  
Precipitation 0.00 in - - ()
Sea Level Pressure  
Sea Level Pressure 29.88 in    
Wind  
Wind Speed 6 mph (East)    
Max Wind Speed 21 mph    
Max Gust Speed 30 mph    
Visibility 9 miles    
Events      
Averages and records for this station are not official NWS values.
T = Trace of Precipitation, MM = Missing Value Source: NWS Daily Summary

Daily Weather History Graph

Daily Weather History Graph

Search for Another Location

Airport or City:

Trip Planner

Search our weather history database for the weather conditions in past years. The results will help you decide how hot, cold, wet, or windy it might be!

Date:

Astronomy

Dec. 19, 2012 Rise Set
Actual Time 7:07 AM CST 4:40 PM CST
Civil Twilight 6:38 AM CST 5:10 PM CST
Nautical Twilight 6:05 AM CST 5:43 PM CST
Astronomical Twilight 5:33 AM CST 6:15 PM CST
Moon 11:24 AM CST (12/19) No Moon Set
Length of Visible Light 10h 31m
Length of Day
9h 32m
Waxing Crescent, 45% of the Moon is Illuminated
Dec 19
Waxing Crescent
Dec 19
First Quarter
Dec 28
Full
Jan 4
Last Quarter
Jan 11
New

Hourly Weather History & Observations

Time (CST) Temp. Windchill Dew Point Humidity Pressure Visibility Wind Dir Wind Speed Gust Speed Precip Events Conditions
12:52 AM 39.0 °F - 37.0 °F 93% 29.93 in 7.0 mi Calm Calm - N/A   Clear
1:52 AM 42.1 °F 36.6 °F 37.9 °F 85% 29.95 in 10.0 mi North 9.2 mph - N/A   Clear
2:52 AM 37.9 °F 35.5 °F 32.0 °F 79% 29.97 in 10.0 mi North 3.5 mph - N/A   Clear
3:52 AM 34.0 °F 31.0 °F 30.0 °F 85% 29.98 in 9.0 mi ENE 3.5 mph - N/A   Clear
4:52 AM 34.0 °F 29.8 °F 30.9 °F 89% 29.99 in 8.0 mi NE 4.6 mph - N/A   Clear
5:52 AM 36.0 °F 31.1 °F 30.9 °F 82% 29.99 in 8.0 mi ENE 5.8 mph - N/A   Clear
6:52 AM 35.1 °F 31.0 °F 30.0 °F 82% 30.00 in 8.0 mi East 4.6 mph - N/A   Clear
7:52 AM 36.0 °F 32.1 °F 30.9 °F 82% 30.00 in 6.0 mi ESE 4.6 mph - N/A   Haze
8:52 AM 39.0 °F 34.8 °F 33.1 °F 79% 30.00 in 7.0 mi East 5.8 mph - N/A   Clear
9:52 AM 42.1 °F 38.4 °F 35.1 °F 76% 30.01 in 8.0 mi East 5.8 mph - N/A   Clear
10:52 AM 46.9 °F - 37.0 °F 68% 30.00 in 10.0 mi East 9.2 mph - N/A   Clear
11:52 AM 50.0 °F - 37.9 °F 63% 29.95 in 10.0 mi East 11.5 mph - N/A   Clear
12:52 PM 51.1 °F - 39.0 °F 63% 29.92 in 10.0 mi East 8.1 mph - N/A   Scattered Clouds
1:21 PM 51.8 °F - 39.2 °F 62% 29.89 in 10.0 mi East 10.4 mph - N/A   Mostly Cloudy
1:52 PM 52.0 °F - 39.0 °F 61% 29.88 in 10.0 mi East 10.4 mph - N/A   Overcast
2:52 PM 51.1 °F - 39.9 °F 66% 29.87 in 10.0 mi ENE 8.1 mph - N/A   Overcast
3:52 PM 51.1 °F - 41.0 °F 68% 29.87 in 10.0 mi East 8.1 mph - N/A   Overcast
4:52 PM 51.1 °F - 42.1 °F 71% 29.85 in 10.0 mi East 8.1 mph - N/A   Overcast
5:52 PM 51.1 °F - 43.0 °F 74% 29.83 in 10.0 mi East 6.9 mph - N/A   Overcast
6:39 PM 51.8 °F - 44.6 °F 76% 29.81 in 10.0 mi East 10.4 mph - N/A   Overcast
6:52 PM 52.0 °F - 44.1 °F 74% 29.81 in 10.0 mi ESE 9.2 mph - N/A   Overcast
7:52 PM 53.1 °F - 45.0 °F 74% 29.78 in 10.0 mi ESE 10.4 mph - N/A   Scattered Clouds
8:52 PM 55.9 °F - 46.0 °F 69% 29.75 in 10.0 mi SSE 9.2 mph - N/A   Overcast
9:52 PM 60.1 °F - 43.0 °F 53% 29.69 in 10.0 mi SSE 20.7 mph 29.9 mph 0.00 in   Overcast
10:52 PM 57.9 °F - 44.1 °F 60% 29.65 in 10.0 mi South 15.0 mph 23.0 mph 0.00 in   Mostly Cloudy
11:52 PM 59.0 °F - 43.0 °F 55% 29.60 in 10.0 mi South 16.1 mph 25.3 mph N/A   Mostly Cloudy